Location: Axtheid
(49.6213°N, 11.8205°E)
Time: 15:56:58
(UTC+00:00)

STARLINK-1071 - Pass Details

Date: 18 February 2020
Orbit: 549 x 550 km, 53.0° (Epoch: 08 April)

Event Time Altitude Azimuth Distance (km) Brightness Sun altitude
Exits shadow 05:41:04 - 260° (W) 2,079 6.0 -6.7°
Reaches altitude 10° 05:41:43 10° 262° (W) 1,825 5.7 -6.6°
Maximum altitude 05:45:50 66° 345° (NNW) 604 3.7 -5.9°
Drops below altitude 10° 05:49:59 10° 68° (ENE) 1,830 7.3 -5.3°
Sets 05:52:14 0° 71° (ENE) 2,725 8.3 -4.9°
